| time (UTC) | temp F | wind direction | speed knots | gust knots | rain 1hr in | rain 24hr in | rain mn in | humidity % | barometer mb |
| 20260902100518 | 66 | 113 | 1.7 | 3.5 | 0.00 | 0.82 | 0.78 | 97 | 1013.4 |
| 20260902095538 | 66 | 135 | 1.7 | 3.5 | 0.00 | 0.82 | 0.78 | 97 | 1013.3 |
| 20260902094517 | 66 | 135 | 2.6 | 4.3 | 0.00 | 0.82 | 0.78 | 97 | 1013.4 |
| 20260902093517 | 66 | 135 | 1.7 | 2.6 | 0.00 | 0.82 | 0.78 | 97 | 1013.5 |
| 20260902092517 | 66 | 113 | 1.7 | 6.1 | 0.00 | 0.82 | 0.78 | 97 | 1013.0 |
| 20260902091516 | 66 | 158 | 3.5 | 5.2 | 0.00 | 0.82 | 0.78 | 97 | 1013.0 |
| 20260902090557 | 66 | 158 | 3.5 | 5.2 | 0.00 | 0.82 | 0.78 | 97 | 1012.9 |
| 20260902085517 | 66 | 180 | 3.5 | 7.0 | 0.00 | 0.82 | 0.78 | 97 | 1013.0 |
| 20260902084517 | 66 | 180 | 4.3 | 7.8 | 0.00 | 0.82 | 0.78 | 97 | 1013.5 |
| 20260902083517 | 66 | 203 | 4.3 | 6.1 | 0.00 | 0.82 | 0.78 | 97 | 1014.0 |
| 20260902082517 | 66 | 0.0 | 0.0 | 0.00 | 0.82 | 0.78 | 97 | 1013.2 | |
| 20260902081516 | 66 | 0.0 | 0.0 | 0.00 | 0.82 | 0.78 | 97 | 1013.0 | |
| 20260902080518 | 66 | 180 | 0.9 | 2.6 | 0.00 | 0.82 | 0.78 | 97 | 1013.0 |
| 20260902075517 | 66 | 180 | 2.6 | 4.3 | 0.00 | 0.82 | 0.78 | 97 | 1013.0 |
| 20260902074517 | 66 | 180 | 4.3 | 6.1 | 0.00 | 0.82 | 0.78 | 97 | 1013.0 |
| 20260902073516 | 67 | 180 | 3.5 | 7.0 | 0.01 | 0.82 | 0.78 | 97 | 1013.0 |
| 20260902072557 | 67 | 180 | 6.1 | 9.6 | 0.01 | 0.82 | 0.78 | 97 | 1012.7 |
| 20260902071516 | 67 | 45 | 3.5 | 9.6 | 0.01 | 0.82 | 0.78 | 97 | 1012.8 |
| 20260902070516 | 67 | 45 | 5.2 | 9.6 | 0.02 | 0.82 | 0.78 | 97 | 1011.6 |
| 20260902065516 | 67 | 45 | 5.2 | 7.8 | 0.02 | 0.82 | 0.78 | 97 | 1011.2 |
| 20260902064517 | 67 | 90 | 6.1 | 8.7 | 0.02 | 0.82 | 0.78 | 97 | 1010.9 |
| 20260902063517 | 67 | 68 | 7.0 | 11.3 | 0.02 | 0.81 | 0.77 | 96 | 1011.5 |
| 20260902062516 | 67 | 68 | 7.8 | 12.2 | 0.03 | 0.81 | 0.77 | 96 | 1011.7 |
| 20260902061516 | 67 | 45 | 7.8 | 11.3 | 0.16 | 0.81 | 0.77 | 96 | 1012.3 |
| 20260902060516 | 67 | 90 | 4.3 | 8.7 | 0.74 | 0.80 | 0.76 | 96 | 1012.8 |
| 20260902055516 | 67 | 90 | 3.5 | 7.8 | 0.78 | 0.80 | 0.76 | 95 | 1013.4 |
| 20260902054537 | 68 | 90 | 2.6 | 6.1 | 0.79 | 0.80 | 0.76 | 95 | 1013.3 |
| 20260902053524 | 68 | 0 | 3.5 | 7.0 | 0.78 | 0.79 | 0.75 | 95 | 1013.9 |
| 20260902052550 | 68 | 248 | 8.7 | 16.5 | 0.77 | 0.78 | 0.74 | 95 | 1015.2 |
| 20260902051518 | 68 | 203 | 20.0 | 31.3 | 0.64 | 0.65 | 0.61 | 93 | 1016.5 |
| 20260902050539 | 72 | 225 | 13.9 | 26.1 | 0.05 | 0.06 | 0.02 | 94 | 1018.0 |
| 20260902045538 | 72 | 135 | 4.3 | 13.0 | 0.01 | 0.02 | 0.02 | 93 | 1013.7 |
| 20260902044519 | 72 | 113 | 3.5 | 7.0 | 0.00 | 0.01 | 0.01 | 93 | 1013.6 |
| 20260902043517 | 72 | 113 | 3.5 | 7.0 | 0.00 | 0.01 | 0.01 | 94 | 1013.4 |
| 20260902042518 | 71 | 45 | 2.6 | 4.3 | 0.00 | 0.01 | 0.01 | 95 | 1013.3 |
| 20260902041517 | 71 | 68 | 2.6 | 4.3 | 0.00 | 0.01 | 0.01 | 95 | 1013.4 |
| 20260902040517 | 72 | 68 | 0.9 | 2.6 | 0.00 | 0.01 | 0.01 | 95 | 1014.0 |
| 20260902035517 | 71 | 68 | 0.9 | 2.6 | 0.00 | 0.01 | 0.01 | 95 | 1013.6 |
| 20260902034517 | 71 | 68 | 0.9 | 2.6 | 0.00 | 0.01 | 0.01 | 95 | 1013.3 |
| 20260902033517 | 71 | 68 | 1.7 | 3.5 | 0.00 | 0.01 | 0.01 | 95 | 1013.5 |
| 20260902032517 | 71 | 90 | 2.6 | 6.1 | 0.00 | 0.01 | 0.01 | 95 | 1013.0 |
| 20260902031517 | 71 | 68 | 0.9 | 2.6 | 0.00 | 0.01 | 0.01 | 95 | 1013.5 |
| 20260902030538 | 71 | 68 | 2.6 | 3.5 | 0.00 | 0.01 | 0.01 | 95 | 1013.3 |
| 20260902025537 | 71 | 45 | 2.6 | 3.5 | 0.00 | 0.01 | 0.01 | 95 | 1013.7 |
| 20260902024517 | 72 | 45 | 3.5 | 4.3 | 0.00 | 0.01 | 0.01 | 95 | 1013.8 |
| 20260902023517 | 71 | 45 | 2.6 | 3.5 | 0.00 | 0.01 | 0.01 | 95 | 1013.8 |
| 20260902022537 | 71 | 45 | 3.5 | 4.3 | 0.00 | 0.01 | 0.01 | 95 | 1013.5 |
| 20260902021517 | 71 | 45 | 0.9 | 2.6 | 0.00 | 0.01 | 0.01 | 95 | 1013.4 |
| 20260902020537 | 71 | 0.0 | 0.0 | 0.00 | 0.01 | 0.01 | 95 | 1013.4 | |
| 20260902015517 | 72 | 45 | 2.6 | 3.5 | 0.00 | 0.01 | 0.01 | 95 | 1013.3 |
| 20260902014517 | 71 | 45 | 3.5 | 4.3 | 0.00 | 0.01 | 0.01 | 94 | 1013.1 |
| 20260902013517 | 72 | 45 | 2.6 | 3.5 | 0.00 | 0.01 | 0.01 | 94 | 1013.1 |
| 20260902012517 | 73 | 45 | 1.7 | 3.5 | 0.00 | 0.01 | 0.01 | 94 | 1013.1 |
| 20260902011517 | 73 | 45 | 0.9 | 1.7 | 0.00 | 0.01 | 0.01 | 93 | 1013.0 |
| 20260902010516 | 73 | 45 | 0.9 | 1.7 | 0.00 | 0.01 | 0.01 | 93 | 1012.8 |
| 20260902005517 | 74 | 45 | 1.7 | 2.6 | 0.00 | 0.01 | 0.01 | 92 | 1013.1 |
| 20260902004517 | 75 | 45 | 0.9 | 1.7 | 0.00 | 0.01 | 0.01 | 91 | 1013.2 |
| 20260902003516 | 75 | 45 | 0.9 | 2.6 | 0.00 | 0.01 | 0.01 | 90 | 1013.1 |
| 20260902002517 | 76 | 45 | 2.6 | 4.3 | 0.00 | 0.01 | 0.01 | 89 | 1012.9 |
| 20260902001516 | 77 | 45 | 2.6 | 5.2 | 0.00 | 0.01 | 0.01 | 88 | 1013.1 |
| 20260901235518 | 77 | 23 | 3.5 | 4.3 | 0.00 | 0.01 | 0.01 | 89 | 1013.2 |
| 20260901234516 | 78 | 23 | 3.5 | 5.2 | 0.00 | 0.01 | 0.01 | 87 | 1013.5 |
| 20260901233517 | 79 | 23 | 3.5 | 4.3 | 0.00 | 0.01 | 0.01 | 85 | 1013.5 |
| 20260901232517 | 79 | 23 | 4.3 | 7.8 | 0.00 | 0.01 | 0.01 | 84 | 1013.6 |
| 20260901231517 | 80 | 45 | 4.3 | 7.0 | 0.00 | 0.01 | 0.01 | 84 | 1013.6 |
| 20260901230516 | 81 | 45 | 4.3 | 5.2 | 0.00 | 0.01 | 0.01 | 83 | 1013.6 |
| 20260901225517 | 81 | 23 | 4.3 | 7.0 | 0.00 | 0.01 | 0.01 | 84 | 1013.5 |
| 20260901224516 | 81 | 68 | 2.6 | 4.3 | 0.00 | 0.01 | 0.01 | 86 | 1013.5 |
| 20260901223516 | 81 | 68 | 2.6 | 3.5 | 0.00 | 0.01 | 0.01 | 86 | 1013.5 |
| 20260901222516 | 81 | 68 | 2.6 | 4.3 | 0.00 | 0.01 | 0.01 | 84 | 1013.5 |
| 20260901221517 | 81 | 68 | 2.6 | 4.3 | 0.00 | 0.01 | 0.01 | 84 | 1013.5 |
| 20260901220516 | 82 | 68 | 2.6 | 3.5 | 0.00 | 0.01 | 0.01 | 82 | 1013.5 |
| 20260901215517 | 82 | 68 | 1.7 | 3.5 | 0.00 | 0.01 | 0.01 | 80 | 1013.6 |
| 20260901214516 | 82 | 68 | 0.9 | 2.6 | 0.00 | 0.01 | 0.01 | 80 | 1013.5 |
| 20260901213536 | 82 | 68 | 0.9 | 3.5 | 0.00 | 0.01 | 0.01 | 79 | 1013.7 |
| 20260901212517 | 82 | 68 | 0.9 | 2.6 | 0.00 | 0.01 | 0.01 | 80 | 1013.7 |
| 20260901211517 | 82 | 68 | 1.7 | 4.3 | 0.00 | 0.01 | 0.01 | 78 | 1013.7 |
| 20260901210516 | 82 | 0.0 | 0.9 | 0.00 | 0.01 | 0.01 | 78 | 1013.7 | |
| 20260901205536 | 82 | 68 | 0.9 | 2.6 | 0.00 | 0.01 | 0.01 | 76 | 1013.8 |
| 20260901204537 | 82 | 45 | 2.6 | 4.3 | 0.00 | 0.01 | 0.01 | 77 | 1013.9 |
| 20260901203516 | 82 | 45 | 0.9 | 4.3 | 0.00 | 0.01 | 0.01 | 76 | 1013.9 |
| 20260901202516 | 82 | 45 | 3.5 | 4.3 | 0.00 | 0.01 | 0.01 | 75 | 1013.9 |
| 20260901201557 | 82 | 68 | 0.9 | 3.5 | 0.00 | 0.01 | 0.01 | 77 | 1014.1 |
| 20260901200516 | 82 | 68 | 0.9 | 2.6 | 0.00 | 0.01 | 0.01 | 73 | 1014.2 |
| 20260901195516 | 82 | 68 | 1.7 | 3.5 | 0.00 | 0.01 | 0.01 | 77 | 1014.3 |
| 20260901194516 | 82 | 68 | 0.9 | 4.3 | 0.00 | 0.01 | 0.01 | 77 | 1014.2 |
| 20260901193556 | 82 | 90 | 0.9 | 3.5 | 0.00 | 0.01 | 0.01 | 76 | 1014.2 |
| 20260901192516 | 82 | 90 | 1.7 | 4.3 | 0.00 | 0.01 | 0.01 | 77 | 1014.1 |
| 20260901191537 | 82 | 68 | 2.6 | 6.1 | 0.00 | 0.01 | 0.01 | 77 | 1014.2 |
| 20260901190516 | 82 | 68 | 1.7 | 3.5 | 0.00 | 0.01 | 0.01 | 77 | 1014.3 |
| 20260901185536 | 81 | 90 | 2.6 | 4.3 | 0.00 | 0.01 | 0.01 | 76 | 1014.3 |
| 20260901184516 | 81 | 90 | 0.9 | 2.6 | 0.00 | 0.01 | 0.01 | 79 | 1014.5 |
| 20260901183516 | 81 | 90 | 0.9 | 3.5 | 0.00 | 0.01 | 0.01 | 77 | 1014.6 |
| 20260901182516 | 82 | 135 | 0.9 | 2.6 | 0.00 | 0.01 | 0.01 | 75 | 1014.8 |
| 20260901181516 | 82 | 0.0 | 2.6 | 0.00 | 0.01 | 0.01 | 72 | 1015.0 | |
| 20260901180517 | 81 | 0.0 | 0.9 | 0.00 | 0.01 | 0.01 | 74 | 1015.0 | |
| 20260901175516 | 81 | 135 | 0.9 | 2.6 | 0.00 | 0.01 | 0.01 | 73 | 1015.1 |
| 20260901174515 | 81 | 135 | 1.7 | 4.3 | 0.00 | 0.01 | 0.01 | 75 | 1015.3 |
| 20260901173516 | 81 | 113 | 1.7 | 5.2 | 0.00 | 0.01 | 0.01 | 73 | 1014.9 |
| 20260901172516 | 82 | 90 | 2.6 | 4.3 | 0.00 | 0.01 | 0.01 | 75 | 1014.9 |
| 20260901171515 | 82 | 90 | 0.9 | 2.6 | 0.00 | 0.01 | 0.01 | 72 | 1015.4 |
| 20260901170536 | 81 | 45 | 0.9 | 3.5 | 0.00 | 0.01 | 0.01 | 70 | 1015.3 |
| 20260901165515 | 81 | 45 | 1.7 | 3.5 | 0.00 | 0.01 | 0.01 | 73 | 1015.3 |
| 20260901164536 | 81 | 68 | 3.5 | 6.1 | 0.00 | 0.01 | 0.01 | 72 | 1015.3 |
| 20260901163516 | 80 | 68 | 3.5 | 5.2 | 0.00 | 0.01 | 0.01 | 73 | 1015.2 |
| 20260901162516 | 80 | 68 | 1.7 | 4.3 | 0.00 | 0.01 | 0.01 | 76 | 1015.3 |
| 20260901161516 | 79 | 45 | 2.6 | 4.3 | 0.00 | 0.01 | 0.01 | 77 | 1015.3 |
| 20260901160515 | 80 | 68 | 2.6 | 5.2 | 0.00 | 0.01 | 0.01 | 74 | 1015.5 |
| 20260901155516 | 79 | 90 | 0.9 | 3.5 | 0.00 | 0.01 | 0.01 | 76 | 1015.5 |
| 20260901154540 | 79 | 0.0 | 1.7 | 0.00 | 0.01 | 0.01 | 77 | 1015.5 | |
| 20260901153515 | 78 | 68 | 1.7 | 3.5 | 0.00 | 0.01 | 0.01 | 80 | 1015.4 |
| 20260901152536 | 77 | 68 | 0.9 | 2.6 | 0.00 | 0.01 | 0.01 | 80 | 1015.5 |
| 20260901151517 | 77 | 0.0 | 1.7 | 0.00 | 0.01 | 0.01 | 84 | 1015.4 | |
| 20260901150558 | 75 | 0.0 | 0.9 | 0.00 | 0.01 | 0.01 | 86 | 1015.3 | |
| 20260901145517 | 75 | 0.0 | 1.7 | 0.00 | 0.01 | 0.01 | 88 | 1015.3 | |
| 20260901144517 | 73 | 0.0 | 1.7 | 0.00 | 0.01 | 0.01 | 89 | 1015.2 | |
| 20260901143517 | 73 | 0.0 | 1.7 | 0.00 | 0.01 | 0.01 | 91 | 1015.2 | |
| 20260901142537 | 72 | 0.0 | 0.0 | 0.00 | 0.01 | 0.01 | 94 | 1015.3 | |
| 20260901141537 | 71 | 0.0 | 0.0 | 0.00 | 0.01 | 0.01 | 95 | 1015.4 | |
| 20260901140522 | 70 | 0.0 | 0.0 | 0.00 | 0.01 | 0.01 | 96 | 1015.3 | |
| 20260901135518 | 69 | 0.0 | 0.0 | 0.00 | 0.01 | 0.01 | 97 | 1015.6 | |
| 20260901134517 | 69 | 0.0 | 0.0 | 0.00 | 0.01 | 0.01 | 97 | 1015.6 | |
| 20260901133517 | 68 | 0.0 | 0.0 | 0.00 | 0.01 | 0.01 | 98 | 1015.7 | |
| 20260901132518 | 66 | 0.0 | 0.0 | 0.00 | 0.01 | 0.01 | 98 | 1015.6 | |
| 20260901131517 | 65 | 0.0 | 0.0 | 0.00 | 0.01 | 0.01 | 98 | 1015.6 | |
| 20260901130517 | 64 | 0.0 | 0.0 | 0.00 | 0.01 | 0.01 | 98 | 1015.4 | |
| 20260901125538 | 62 | 0.0 | 0.0 | 0.00 | 0.01 | 0.01 | 98 | 1015.3 | |
| 20260901124538 | 62 | 0.0 | 0.0 | 0.00 | 0.01 | 0.01 | 98 | 1015.2 | |
| 20260901123557 | 62 | 0.0 | 0.0 | 0.00 | 0.01 | 0.01 | 98 | 1015.0 | |
| 20260901122517 | 62 | 0.0 | 0.0 | 0.01 | 0.01 | 0.01 | 98 | 1015.0 | |
| 20260901121518 | 61 | 0.0 | 0.0 | 0.01 | 0.01 | 0.01 | 98 | 1014.8 | |
| 20260901120518 | 61 | 0.0 | 0.0 | 0.01 | 0.01 | 0.01 | 98 | 1014.8 | |
| 20260901115519 | 60 | 0.0 | 0.0 | 0.01 | 0.01 | 0.01 | 98 | 1014.7 | |
| 20260901114537 | 60 | 0.0 | 0.0 | 0.01 | 0.01 | 0.01 | 98 | 1014.8 | |
| 20260901113518 | 60 | 0.0 | 0.9 | 0.01 | 0.01 | 0.01 | 98 | 1014.7 | |
| 20260901112517 | 60 | 0 | 1.7 | 2.6 | 0.00 | 0.00 | 0.00 | 98 | 1014.8 |
| 20260901111517 | 61 | 0.0 | 1.7 | 0.00 | 0.00 | 0.00 | 98 | 1015.4 | |
| 20260901110538 | 60 | 0.0 | 0.0 | 0.00 | 0.00 | 0.00 | 98 | 1014.7 | |
| 20260901105517 | 60 | 0.0 | 0.0 | 0.00 | 0.00 | 0.00 | 98 | 1014.7 | |
| 20260901104517 | 61 | 0.0 | 0.0 | 0.00 | 0.00 | 0.00 | 98 | 1014.7 | |
| 20260901103538 | 61 | 0.0 | 0.0 | 0.00 | 0.00 | 0.00 | 98 | 1014.6 | |
| 20260901102516 | 60 | 0.0 | 0.0 | 0.00 | 0.00 | 0.00 | 98 | 1014.6 | |
| 20260901101517 | 62 | 0.0 | 0.0 | 0.00 | 0.00 | 0.00 | 98 | 1014.5 |